星链-30953 (STARLINK-30953 )

导读

STARLINK-30953是美国星链项目的低轨通信卫星,于2023年12月3日发射入轨,属于SpaceX星链星座组网部署的一员。星链旨在构建全球卫星互联网,为全球偏远地区、海洋空域等场景提供宽带网络服务,该卫星的发射进一步扩充了星链低轨星座的规模,助力星座全球覆盖能力提升。

基本信息
目录编号:
58491
目录名称:
STARLINK-30953
国际标识:
2023-186U
轨道中心:
EARTH
卫星名称:
星链-30953
卫星全名:
星链-30953 (STARLINK-30953 )
卫星状态:
在轨 (已飞行1013 天)
发射日期:
2023-12-03 UTC
国别 :
美国 (US)
星等 :
--
该卫星已列入 空间交会检测服务 Space Conjunction Data Service (SCDS) ,当前飞行风险评估等级: 高风险
轨道信息
数据来源 国际轨道数据 AOE轨道数据
星历时间 2026-09-11T11:33:26+0800
13小时前
查看轨道信息
2026-09-10T06:00:00+0800
1天前
查看轨道信息
半长轴 6861.19km 6861.22km
偏心率 0.0001161 0.0001135
轨道倾角 43.002° 42.999°
近地点辐角 264.968° 260.365°
升交点赤经 300.132° 307.088°
平近点角 95.104° 159.082°
近地点 482.256km 482.304km
远地点 483.85km 483.862km
周期 94.267分钟 94.267分钟
每日圈数 15.275787 15.275687
详细信息
固有亮度:
5
最大亮度:
0.3
卫星平台:
Starlink v2.0 mini
覆盖范围:
全球
运营商:
太空探索技术公司
运营商所在国:
美国
制造商(研发单位):
太空探索技术公司
制造商所在国:
美国
使用方式:
暂无
卫星简介
星链(Starlink)计划是由太空探索技术公司(SpaceX)提出的一个巨型低轨卫星互联网星座项目,计划在2019年至2024年间在太空搭建由约1.2万颗卫星组成的“星链”网络,其中1584颗将部署在地球上空550千米处的近地轨道,并从2020年开始工作。该卫星仍在工作。
2D轨道图
3D轨道图
轨道高度分析图
轨道倾角分析图
轨道综合分析图
查看轨道综合分析图
交会数据列表
事件ID 空间交会对象 最接近时刻(TCA) 交会距离 交会风险概率(CRP) 交会风险指数(CRI) 操作
CDM_260912-172605-849106-196921
2026-09-12T
17:26:39+0000
0.086 km
近距离
1.158474E-3 极高风险 0.96
CDM_260913-065905-849106-647221
2026-09-13T
06:59:48+0000
0.678 km
远距离
2.979335E-5 中风险 0.64
CDM_260913-105505-849106-647221
2026-09-13T
10:55:11+0000
0.852 km
远距离
1.406629E-5 中风险 0.58
CDM_260912-104305-849106-365121
2026-09-12T
10:43:27+0000
1.098 km
极远距离
1.253454E-5 中风险 0.57
CDM_260912-205505-849106-365121
2026-09-12T
20:55:27+0000
1.151 km
极远距离
1.06239E-5 中风险 0.56
CDM_260912-090905-849106-365121
2026-09-12T
09:09:18+0000
1.209 km
极远距离
8.956386E-6 低风险 0.54
CDM_260912-083005-233705-849121
2026-09-12T
08:30:21+0000
1.526 km
极远距离
5.223112E-6 低风险 0.49
CDM_260912-222905-849106-365121
2026-09-12T
22:29:36+0000
1.446 km
极远距离
4.916198E-6 低风险 0.49
CDM_260912-155205-849106-196921
2026-09-12T
15:52:30+0000
1.806 km
极远距离
2.472943E-6 低风险 0.43
CDM_260912-190005-849106-196921
2026-09-12T
19:00:49+0000
1.906 km
极远距离
2.140295E-6 低风险 0.42
与全量物体交会距离演化趋势
与全量物体交会风险概率演化趋势